Zurück zum Katalog

COSMOS 2499 DEB

LostPO
NORAD 56571·DEBRIS·🇷🇺 Russia

Gestartet May 23, 2014 von Plesetsk Cosmodrome

Loading…

Nächste Überflüge (nächste 24 Stunden)

TLE

VeraltetSource: Space-Track

Epoche: Dec 24, 2025, 02:02 UTC

1 56571U 14028BE  25358.08480280  .00005155  00000-0  98502-2 0  9994
2 56571  81.9189 281.5361 0273867 270.5739  86.4015 13.24156425140804

Verfolge COSMOS 2499 DEB in Echtzeit mit AllMySat

Download on the App Store